This is the latest recevied weather packets stored in our database for station/object N0ZJT. If no packets are shown the sender has not sent any weather packets the latest 10 day(s).
| Time | Temp. | Humidity | Pressure | Rain* | Wind** | Luminosity | Snow |
|---|---|---|---|---|---|---|---|
| 1777068890 | 18.89° C | 47% | 971.9 hPa | 0 mm | - | - | - |
| 1777067930 | 18.89° C | 48% | 971.9 hPa | 0 mm | - | - | - |
| 1777067090 | 18.89° C | 47% | 971.9 hPa | 0 mm | - | - | - |
| 1777066130 | 18.89° C | 47% | 972 hPa | 0 mm | - | - | - |
| 1777065290 | 18.89° C | 46% | 971.9 hPa | 0 mm | - | - | - |
| 1777064330 | 18.89° C | 46% | 971.9 hPa | 0 mm | - | - | - |
| 1777063490 | 18.89° C | 45% | 971.9 hPa | 0 mm | - | - | - |
| 1777062530 | 18.33° C | 49% | 971.9 hPa | 0 mm | - | - | - |
| 1777061690 | 18.89° C | 49% | 971.9 hPa | 0 mm | - | - | - |
| 1777060730 | 18.89° C | 52% | 971.9 hPa | 0 mm | - | - | - |
| 1777059890 | 18.33° C | 52% | 971.9 hPa | 0 mm | - | - | - |
| 1777058930 | 18.33° C | 53% | 971.8 hPa | 0 mm | - | - | - |
| 1777058090 | 17.78° C | 56% | 971.7 hPa | 0 mm | - | - | - |
| 1777057130 | 17.78° C | 53% | 971.5 hPa | 0 mm | - | - | - |
| 1777056290 | 17.22° C | 56% | 971.7 hPa | 0 mm | - | - | - |
| 1777055330 | 17.22° C | 56% | 971.5 hPa | 0 mm | - | - | - |
| 1777054490 | 17.22° C | 59% | 971.5 hPa | 0 mm | - | - | - |
| 1777053530 | 16.67° C | 60% | 971.5 hPa | 0 mm | - | - | - |
| 1777052690 | 16.11° C | 58% | 971.5 hPa | 0 mm | - | - | - |
| 1777051730 | 15.56° C | 60% | 971.4 hPa | 0 mm | - | - | - |
| 1777050890 | 15.56° C | 61% | 971.3 hPa | 0 mm | - | - | - |
| 1777049930 | 15° C | 61% | 971.3 hPa | 0 mm | - | - | - |
| 1777049090 | 14.44° C | 63% | 971.2 hPa | 0 mm | - | - | - |
| 1777048130 | 13.89° C | 64% | 970.9 hPa | 0 mm | - | - | - |
| 1777047290 | 13.33° C | 65% | 970.9 hPa | 0 mm | - | - | - |
* Rain latest hour (hover to see other rain measurements)
** Current wind speed in m/s (hover to see current wind gust speed)